[[{"header":{"parameterUnit":"m.s-1","parameterCategory":1,"la1":30.2991,"la2":30.254,"lo1":-89.0895,"lo2":-89.0444,"dy":0.0017,"dx":0.0017,"nx":28,"ny":28,"refTime":"2024-04-26T03:00:00:Z","depth":0,"parameterNumber":2,"parameterNumberName":"U-component_of_WINDS"},"data":[0,0,0,0,0,0,0,0,0,0,0,0,0,0,0,0,0,0,0,0,0,0,0,0,0,0,0,0,0,0,0,0,0,0,0,0,0,0,0,0,0,0,0,0,0,0,0,0,0,0,0,0,0,0,0,0,0,0,-7.8337,-7.8338,0,-7.8388,-7.8389,-7.839,-7.8327,-7.8325,-7.8322,-7.832,-7.8368,-7.8371,-7.8375,0,0,0,0,0,0,0,0,0,0,0,0,0,-7.8182,-7.8185,-7.8337,-7.8338,-7.8338,-7.8388,-7.8389,-7.839,-7.8327,-7.8325,-7.8322,-7.8319,-7.8367,-7.8371,-7.8375,0,0,0,0,0,0,0,0,0,0,0,0,0,-7.8243,-7.8186,-7.8337,-7.8313,-7.8312,-7.8388,-7.8389,-7.839,-7.8328,-7.8324,-7.8321,-7.8318,-7.8365,-7.837,-7.8375,-7.8476,0,0,-7.8391,-7.8393,0,0,0,0,0,0,0,0,-7.8239,-7.8249,-7.8316,-7.8315,-7.8313,-7.8348,-7.8352,-7.8419,-7.8329,-7.8322,-7.832,-7.8316,-7.8364,-7.8369,-7.8386,-7.8478,-7.848,-7.8392,-7.8395,-7.8397,-7.8398,0,0,0,0,0,0,0,-7.8235,-7.8246,-7.8357,-7.8317,-7.8316,-7.8299,-7.8304,-7.8364,-7.8361,-7.8322,-7.8318,-7.8325,-7.8362,-7.8381,-7.8386,-7.8481,-7.8391,-7.8396,-7.8399,-7.8401,-7.866,-7.8663,0,0,0,0,0,0,-7.8234,-7.8243,-7.8355,-7.8359,-7.8267,-7.8305,-7.831,-7.834,-7.836,-7.836,-7.8328,-7.8322,-7.8374,-7.8381,-7.8388,-7.8506,-7.8397,-7.8402,-7.8405,-7.8656,-7.8661,-7.8665,0,0,0,0,0,0,-7.8231,-7.8245,-7.8353,-7.83,-7.8312,-7.8311,-7.8345,-7.8343,-7.8362,-7.8365,-7.8364,-7.8348,-7.8371,-7.8381,-7.8455,-7.8507,-7.8404,-7.8409,-7.8652,-7.8657,-7.8663,-7.8745,0,0,0,0,0,0,-7.8227,-7.8244,-7.8283,-7.8301,-7.8315,-7.8421,-7.8349,-7.8347,-7.8371,-7.8364,-7.8383,-7.8383,-7.8369,-7.8448,-7.846,-7.8512,-7.8413,-7.8647,-7.8654,-7.8661,-7.8737,-7.8752,-7.8766,0,0,0,0,0,-7.8222,-7.8302,-7.8285,-7.8299,-7.8364,-7.8424,-7.8432,-7.8416,-7.8376,-7.8414,-7.8417,-7.8382,-7.8501,-7.8456,-7.8469,-7.8524,-7.8643,-7.8652,-7.866,-7.8731,-7.8749,-7.8765,0,0,0,0,0,0,-7.8287,-7.8304,-7.8285,-7.8374,-7.8399,-7.8413,-7.846,-7.8436,-7.8471,-7.8462,-7.844,-7.8445,-7.8524,-7.8532,-7.8482,-7.8623,-7.8565,-7.8577,-7.8614,-7.8632,-7.8646,-7.864,-7.8417,0,0,0,0,0,-7.8313,-7.8361,-7.8373,-7.8451,-7.8464,-7.8461,-7.8486,-7.8473,-7.8496,-7.8505,-7.8513,-7.8536,-7.8578,-7.8606,-7.8645,-7.874,-7.8742,-7.8784,-7.8798,-7.881,-7.8819,-7.8869,-7.8888,-7.8693,-7.8693,-7.8693,0,0,-7.8364,-7.838,-7.8411,-7.8464,-7.8481,-7.8531,-7.8469,-7.8524,-7.856,-7.8513,-7.8583,-7.8591,-7.8615,-7.87,-7.8738,-7.8709,-7.8874,-7.8821,-7.883,-7.8833,-7.888,-7.8898,-7.8915,-7.8699,-7.8698,-7.8697,0,0,-7.8483,-7.8501,-7.8567,-7.8587,-7.8614,-7.8612,-7.8629,-7.8649,-7.8652,-7.8724,-7.8689,-7.8733,-7.8806,-7.8825,-7.8844,-7.8975,-7.8944,-7.8989,-7.9061,-7.911,-7.9126,-7.9139,-7.9184,-7.9201,-7.8999,-7.8999,-7.8999,0,-7.8542,-7.8617,-7.8604,-7.8662,-7.8686,-7.865,-7.8716,-7.8736,-7.8774,-7.8791,-7.8759,-7.8852,-7.8866,-7.8955,-7.8987,-7.9005,-7.9022,-7.8984,-7.9125,-7.9138,-7.9151,-7.9193,-7.921,-7.9004,-7.9003,-7.9003,-7.9002,0,-7.8688,-7.8741,-7.8792,-7.8833,-7.8863,-7.8925,-7.8921,-7.8954,-7.8939,-7.8941,-7.9014,-7.9031,-7.9073,-7.9094,-7.9079,-7.9181,-7.9162,-7.9129,-7.9069,-7.9174,-7.9214,-7.923,-7.9011,-7.9009,-7.9008,-7.9007,0,0,-7.8844,-7.8881,-7.8899,-7.8917,-7.8948,-7.8988,-7.905,-7.9093,-7.9121,-7.915,-7.92,-7.9265,-7.9235,-7.9257,-7.9245,-7.9289,-7.9391,-7.925,-7.925,-7.9273,-7.9503,-7.9526,-7.9545,-7.9373,-7.9376,-7.9379,-7.95,0,-7.8961,-7.9068,-7.906,-7.9161,-7.9209,-7.9178,-7.9231,-7.9256,-7.926,-7.9301,-7.9305,-7.9351,-7.9309,-7.9322,-7.9365,-7.9369,-7.9436,-7.9361,-7.9416,-7.9419,-7.9407,-7.9566,-7.9589,-7.9703,-7.9516,-7.9518,-7.952,0,-7.9111,-7.9148,-7.9255,-7.928,-7.93,-7.9348,-7.9388,-7.9429,-7.9456,-7.9456,-7.9484,-7.9465,-7.9526,-7.947,-7.9553,-7.9503,-7.9526,-7.9532,-7.9536,-7.9537,-7.9473,-7.9568,-7.9739,-7.9755,-7.9545,-7.9543,-7.9541,0,-7.9211,-7.9288,-7.9362,-7.9379,-7.9411,-7.9446,-7.946,-7.9485,-7.9512,-7.9548,-7.9565,-7.9607,-7.9629,-7.9661,-7.9654,-7.9614,-7.974,-7.9683,-7.9739,-7.974,-7.9763,-7.9761,-7.9937,-7.9785,-7.9785,-7.9784,-7.9784,0,-7.934,-7.9406,-7.9407,-7.9452,-7.9525,-7.9517,-7.9589,-7.9599,-7.9622,-7.9668,-7.9644,-7.9687,-7.9677,-7.972,-7.9716,-7.9785,-7.9796,-7.9796,-7.9794,-7.9796,-7.9796,-7.9808,-7.9798,-7.9789,-7.9788,-7.9787,-7.9786,0,-7.9462,-7.9466,-7.9544,-7.957,-7.9578,-7.963,-7.9651,-7.9693,-7.9698,-7.9757,-7.977,-7.9776,-7.9826,-7.9824,-7.988,-7.9877,-7.9961,-7.9951,-7.9952,-7.9949,-8.0005,-7.9999,-8.0191,-8.0215,-8.0051,-8.0053,-8.0054,0,-7.9542,-7.9592,-7.9625,-7.9655,-7.9673,-7.9721,-7.975,-7.9745,-7.9776,-7.9813,-7.9851,-7.9899,-7.9936,-8.0018,-8.0026,-8.0069,-8.0058,-8.0123,-8.0063,-8.0065,-8.0055,-8.0051,-8.0055,-8.0133,-8.0134,-8.0136,-8.0137,0,-7.9684,-7.9684,-7.9728,-7.9773,-7.9809,-7.9844,-7.9876,-7.9902,-7.99,-7.9936,-7.9988,-8.0018,-8.0077,-8.0124,-8.0167,-8.018,-8.0158,-8.0157,-8.0172,-8.0173,-8.017,-8.017,-7.998,-8.0151,-8.015,-8.0149,-8.0148,-8.0147,-7.9785,-7.9829,-7.9859,-7.9909,-7.9933,-7.9965,-8.0006,-8.0018,-8.0061,-8.011,-8.0105,-8.0162,-8.019,-8.0245,-8.0264,-8.0308,-8.0284,-8.0307,-8.0311,-8.0316,-8.0321,-8.0168,-8.0316,-8.0315,-8.0315,-8.0315,-8.0314,0,-7.9923,-7.9942,-7.9989,-8.0036,-8.0075,-8.0056,-8.0091,-8.0124,-8.0176,-8.0206,-8.0245,-8.0305,-8.0352,-8.0367,-8.0412,-8.0445,-8.0436,-8.0457,-8.0452,-8.0456,-8.0341,-8.0322,-8.0463,-8.0463,-8.0463,-8.0463,-8.0463,-8.0463,-7.9999,-8.0072,-8.0077,-8.0162,-8.018,-8.0238,-8.026,-8.0288,-8.0312,-8.0381,-8.0421,-8.0432,-8.0455,-8.0503,-8.0545,-8.0548,-8.0564,-8.0589,-8.0587,-8.0479,-8.0464,-8.0449,-8.0431,-8.0593,-8.0594,-8.0698,-8.0699,-8.07]},{"header":{"parameterUnit":"m.s-1","parameterCategory":1,"la1":30.2991,"la2":30.254,"lo1":-89.0895,"lo2":-89.0444,"dy":0.0017,"dx":0.0017,"nx":28,"ny":28,"refTime":"2024-04-26T03:00:00:Z","depth":0,"parameterNumber":3,"parameterNumberName":"V-component_of_WINDS"},"data":[0,0,0,0,0,0,0,0,0,0,0,0,0,0,0,0,0,0,0,0,0,0,0,0,0,0,0,0,0,0,0,0,0,0,0,0,0,0,0,0,0,0,0,0,0,0,0,0,0,0,0,0,0,0,0,0,0,0,3.6175,3.6175,0,3.6205,3.6205,3.6206,3.6255,3.6256,3.6257,3.6258,3.6282,3.6282,3.6282,0,0,0,0,0,0,0,0,0,0,0,0,0,3.6155,3.6155,3.6175,3.6175,3.6176,3.6205,3.6205,3.6206,3.6255,3.6256,3.6258,3.6259,3.6282,3.6282,3.6282,0,0,0,0,0,0,0,0,0,0,0,0,0,3.6172,3.6155,3.6175,3.6204,3.6207,3.6205,3.6205,3.6206,3.6255,3.6256,3.6258,3.6259,3.6282,3.6282,3.6282,3.6251,0,0,3.628,3.628,0,0,0,0,0,0,0,0,3.6171,3.6173,3.6199,3.6202,3.6205,3.6228,3.6207,3.6221,3.6255,3.6236,3.6258,3.626,3.6262,3.6264,3.6266,3.6252,3.6253,3.628,3.628,3.628,3.628,0,0,0,0,0,0,0,3.617,3.6172,3.6187,3.62,3.6203,3.6214,3.6218,3.621,3.6241,3.6238,3.6242,3.6245,3.6264,3.6266,3.6267,3.6254,3.628,3.628,3.628,3.628,3.6219,3.6218,0,0,0,0,0,0,3.6165,3.6171,3.6186,3.6187,3.6192,3.6213,3.6218,3.6219,3.6241,3.6246,3.6244,3.6247,3.6266,3.6267,3.6268,3.6236,3.628,3.628,3.6279,3.622,3.6219,3.6217,0,0,0,0,0,0,3.6165,3.6166,3.6184,3.618,3.6183,3.6212,3.6213,3.6219,3.6221,3.6246,3.6251,3.6241,3.6267,3.6269,3.6256,3.6237,3.628,3.6279,3.6222,3.622,3.6218,3.617,0,0,0,0,0,0,3.6164,3.6166,3.6155,3.618,3.6183,3.6173,3.6212,3.6219,3.6221,3.6226,3.6244,3.6248,3.6269,3.6256,3.6256,3.6238,3.6279,3.6224,3.6221,3.6219,3.6173,3.6166,3.616,0,0,0,0,0,3.6163,3.6138,3.6155,3.6156,3.6171,3.6172,3.6174,3.62,3.622,3.6209,3.6225,3.6248,3.624,3.6255,3.6254,3.6236,3.6225,3.6222,3.6219,3.6176,3.6168,3.6161,0,0,0,0,0,0,3.6108,3.6142,3.616,3.6143,3.6155,3.618,3.6168,3.619,3.6194,3.6198,3.6228,3.6231,3.6215,3.6224,3.624,3.6209,3.6236,3.6233,3.6204,3.6196,3.619,3.6188,3.6279,0,0,0,0,0,3.6094,3.6094,3.6123,3.6105,3.611,3.6138,3.6139,3.6159,3.617,3.6175,3.619,3.6199,3.6199,3.6198,3.6199,3.6175,3.618,3.6162,3.6156,3.6151,3.6147,3.6137,3.613,3.6207,3.6207,3.6207,0,0,3.6065,3.6084,3.6081,3.6094,3.6106,3.6103,3.6141,3.6136,3.6135,3.6173,3.6164,3.6175,3.6187,3.617,3.6163,3.6177,3.6127,3.6146,3.6142,3.6142,3.6133,3.6126,3.6119,3.6205,3.6205,3.6205,0,0,3.6011,3.6025,3.6013,3.6024,3.6042,3.6061,3.6058,3.6081,3.6092,3.6083,3.6113,3.611,3.6108,3.6117,3.6121,3.6073,3.6095,3.6073,3.6039,3.6029,3.6023,3.6018,3.6001,3.5995,3.6069,3.6069,3.6069,0,3.5972,3.5971,3.6003,3.5998,3.6003,3.6041,3.6029,3.6037,3.6053,3.6055,3.6072,3.6073,3.6084,3.607,3.6059,3.606,3.6057,3.607,3.6022,3.6017,3.6012,3.5997,3.5991,3.6066,3.6067,3.6067,3.6067,0,3.5923,3.5922,3.591,3.5929,3.5932,3.5923,3.5952,3.5952,3.5972,3.5989,3.598,3.5995,3.6001,3.5999,3.6016,3.5988,3.5996,3.6016,3.6044,3.6002,3.5988,3.5982,3.6063,3.6063,3.6064,3.6065,0,0,3.5833,3.5872,3.5867,3.5877,3.59,3.59,3.5892,3.5901,3.5901,3.5911,3.5906,3.5905,3.5925,3.593,3.5949,3.594,3.5903,3.5962,3.5962,3.5951,3.5874,3.5858,3.5851,3.5918,3.5917,3.5916,3.5873,0,3.5785,3.5777,3.5806,3.579,3.5791,3.5828,3.5822,3.5835,3.5851,3.5853,3.587,3.587,3.5896,3.5899,3.5892,3.5909,3.5888,3.5912,3.5912,3.5912,3.5908,3.5844,3.5828,3.5786,3.5868,3.5867,3.5866,0,3.5726,3.5737,3.5722,3.575,3.5751,3.5745,3.5756,3.5758,3.5773,3.5786,3.5793,3.5817,3.5811,3.5838,3.583,3.5846,3.5848,3.5857,3.5856,3.5856,3.5886,3.5843,3.5773,3.5767,3.5858,3.5858,3.5859,0,3.5664,3.5674,3.5668,3.5675,3.5706,3.5701,3.5713,3.5731,3.5735,3.5744,3.5748,3.5755,3.5759,3.5763,3.5788,3.5806,3.5778,3.5807,3.5788,3.5787,3.5779,3.578,3.5709,3.578,3.578,3.578,3.578,0,3.5607,3.5596,3.5641,3.5636,3.5626,3.5659,3.5648,3.5663,3.5679,3.5678,3.571,3.5707,3.574,3.5741,3.5761,3.5752,3.5753,3.5763,3.5768,3.576,3.5759,3.5761,3.5765,3.5779,3.5779,3.5779,3.578,0,3.5535,3.5564,3.556,3.5591,3.5598,3.5589,3.5615,3.5612,3.5632,3.563,3.5631,3.5661,3.5664,3.569,3.5697,3.5711,3.5695,3.5705,3.569,3.5694,3.5674,3.5675,3.5602,3.5595,3.567,3.5669,3.5668,0,3.5497,3.549,3.5522,3.5525,3.5537,3.554,3.5546,3.5578,3.5582,3.5602,3.5596,3.5603,3.561,3.5613,3.5634,3.5641,3.5652,3.5626,3.5653,3.5646,3.5653,3.5653,3.5653,3.562,3.5619,3.5618,3.5618,0,3.5426,3.5442,3.545,3.5463,3.547,3.5481,3.5494,3.5494,3.553,3.5533,3.5539,3.5544,3.5555,3.5561,3.5572,3.5583,3.5606,3.561,3.5606,3.5597,3.559,3.5595,3.5675,3.5611,3.5611,3.5612,3.5612,3.5613,3.5371,3.5368,3.539,3.5398,3.5413,3.5425,3.5424,3.5445,3.5451,3.5464,3.5482,3.5486,3.5503,3.5521,3.553,3.5532,3.5546,3.554,3.5538,3.5536,3.5533,3.559,3.5534,3.5535,3.5535,3.5535,3.5535,0,3.5303,3.532,3.5327,3.5347,3.5353,3.5378,3.5394,3.5397,3.5401,3.5416,3.5424,3.543,3.5437,3.546,3.5469,3.5466,3.5477,3.5467,3.5468,3.547,3.552,3.5523,3.5459,3.5459,3.5459,3.5459,3.5459,3.5459,3.5268,3.5265,3.5284,3.5288,3.5304,3.531,3.5317,3.5329,3.5342,3.5349,3.5356,3.5372,3.5391,3.5402,3.5409,3.5415,3.5417,3.5404,3.5414,3.5459,3.5467,3.5474,3.5477,3.5404,3.5404,3.5364,3.5364,3.5364]}]]